Alexandria, MN

5:25 AM CDT on March 28, 2017 (GMT -0500)
Chandler

Weather History for KAXN - May, 2013

Change the Weather History Date:

Saturday, May 4, 2013

  Actual Average Record
Temperature  
Mean Temperature 35 °F -  
Max Temperature 37 °F 65 °F 90 °F (1952)
Min Temperature 33 °F 42 °F 22 °F (1967)
Degree Days  
Heating Degree Days 30    
Moisture  
Dew Point 33 °F    
Average Humidity 89    
Maximum Humidity 96    
Minimum Humidity 73    
Precipitation  
Precipitation 0.03 in - - ()
Sea Level Pressure  
Sea Level Pressure 30.22 in    
Wind  
Wind Speed 10 mph (NNE)    
Max Wind Speed 15 mph    
Max Gust Speed 18 mph    
Visibility 8 miles    
Events Rain    
Averages and records for this station are not official NWS values.
T = Trace of Precipitation, MM = Missing Value Source: NWS Daily Summary

Daily Weather History Graph

Daily Weather History Graph

Search for Another Location

Airport or City:

Trip Planner

Search our weather history database for the weather conditions in past years. The results will help you decide how hot, cold, wet, or windy it might be!

Date:

Astronomy

May. 04, 2013 Rise Set
Actual Time 6:03 AM CDT 8:33 PM CDT
Civil Twilight 5:30 AM CDT 9:07 PM CDT
Nautical Twilight 4:48 AM CDT 9:49 PM CDT
Astronomical Twilight 4:00 AM CDT 10:37 PM CDT
Moon 3:19 AM CDT (5/4) 3:16 PM CDT (5/4)
Length of Visible Light 15h 36m
Length of Day
14h 29m
Waning Crescent, 27% of the Moon is Illuminated
May 4
Waning Crescent
May 9
New
May 17
First Quarter
May 24
Full
May 31
Last Quarter

Hourly Weather History & Observations

Time (CDT) Temp. Windchill Dew Point Humidity Pressure Visibility Wind Dir Wind Speed Gust Speed Precip Events Conditions
12:53 AM 37.0 °F 31.0 °F 28.9 °F 73% 30.25 in 10.0 mi ENE 8.1 mph - 0.00 in Rain Light Rain
1:53 AM 35.1 °F 27.4 °F 32.0 °F 89% 30.24 in 7.0 mi NE 10.4 mph - 0.00 in   Overcast
2:06 AM 35.6 °F 29.2 °F 32.0 °F 87% 30.19 in 7.0 mi NE 8.1 mph - N/A   Overcast
2:29 AM 35.6 °F 29.2 °F 32.0 °F 87% 30.19 in 4.0 mi NE 8.1 mph - N/A   Overcast
2:53 AM 35.1 °F 28.6 °F 32.0 °F 89% 30.23 in 6.0 mi NNE 8.1 mph - N/A   Overcast
3:46 AM 35.6 °F 29.9 °F 32.0 °F 87% 30.18 in 10.0 mi North 6.9 mph - N/A   Overcast
3:53 AM 35.1 °F 27.4 °F 32.0 °F 89% 30.22 in 10.0 mi North 10.4 mph - N/A   Overcast
4:19 AM 33.8 °F 25.3 °F 30.2 °F 87% 30.17 in 10.0 mi North 11.5 mph - N/A   Overcast
4:53 AM 34.0 °F 25.5 °F 30.9 °F 89% 30.22 in 10.0 mi NNE 11.5 mph - N/A   Overcast
5:29 AM 33.8 °F 25.3 °F 30.2 °F 87% 30.17 in 10.0 mi NNE 11.5 mph - N/A   Overcast
5:48 AM 33.8 °F 25.8 °F 30.2 °F 87% 30.17 in 9.0 mi NNE 10.4 mph - N/A   Overcast
5:53 AM 34.0 °F 26.0 °F 30.9 °F 89% 30.22 in 6.0 mi NNE 10.4 mph - N/A   Overcast
6:53 AM 34.0 °F 26.6 °F 30.9 °F 89% 30.23 in 5.0 mi NNE 9.2 mph - N/A   Overcast
7:53 AM 34.0 °F 26.6 °F 30.9 °F 89% 30.24 in 8.0 mi NNE 9.2 mph - N/A   Overcast
8:32 AM 35.6 °F 27.1 °F 30.2 °F 81% 30.19 in 10.0 mi NNE 12.7 mph - N/A   Overcast
8:53 AM 35.1 °F 28.6 °F 32.0 °F 89% 30.24 in 10.0 mi NNE 8.1 mph - N/A   Overcast
9:00 AM 35.6 °F 28.0 °F 32.0 °F 87% 30.19 in 9.0 mi NNE 10.4 mph - 0.00 in   Overcast
9:50 AM 35.6 °F 27.5 °F 32.0 °F 87% 30.19 in 2.5 mi NNE 11.5 mph - 0.02 in Rain Light Rain
9:53 AM 35.1 °F 26.4 °F 32.0 °F 89% 30.24 in 2.5 mi NNE 12.7 mph - 0.02 in Rain Light Rain
10:02 AM 35.6 °F 27.1 °F 32.0 °F 87% 30.19 in 5.0 mi NNE 12.7 mph - 0.00 in   Overcast
10:09 AM 35.6 °F 28.0 °F 32.0 °F 87% 30.19 in 7.0 mi NNE 10.4 mph - 0.00 in   Overcast
10:53 AM 35.1 °F 26.9 °F 32.0 °F 89% 30.25 in 10.0 mi NNE 11.5 mph - 0.00 in   Overcast
11:38 AM 35.6 °F 27.5 °F 33.8 °F 93% 30.20 in 10.0 mi North 11.5 mph - N/A   Overcast
11:49 AM 37.4 °F 30.8 °F 33.8 °F 87% 30.20 in 10.0 mi NNE 9.2 mph - N/A   Overcast
11:53 AM 36.0 °F 27.5 °F 33.1 °F 89% 30.25 in 10.0 mi NNE 12.7 mph 18.4 mph N/A   Overcast
12:53 PM 36.0 °F 27.5 °F 33.1 °F 89% 30.25 in 10.0 mi NNE 12.7 mph - 0.00 in   Overcast
1:53 PM 37.0 °F 28.5 °F 34.0 °F 89% 30.23 in 10.0 mi NE 13.8 mph - N/A   Overcast
2:53 PM 37.0 °F 28.1 °F 33.1 °F 86% 30.25 in 10.0 mi NNE 15.0 mph - N/A   Overcast
3:53 PM 37.9 °F 31.5 °F 34.0 °F 86% 30.24 in 10.0 mi North 9.2 mph - N/A   Overcast
4:53 PM 37.9 °F 30.5 °F 34.0 °F 86% 30.25 in 10.0 mi NNE 11.5 mph - N/A   Overcast
5:53 PM 37.0 °F 31.6 °F 35.1 °F 93% 30.25 in 6.0 mi NNE 6.9 mph - N/A   Overcast
6:53 PM 37.0 °F 29.8 °F 35.1 °F 93% 30.25 in 4.0 mi NNE 10.4 mph - 0.01 in   Overcast
7:04 PM 37.4 °F 30.8 °F 35.6 °F 93% 30.20 in 2.0 mi NNE 9.2 mph - N/A   Overcast
7:35 PM 37.4 °F 30.3 °F 35.6 °F 93% 30.20 in 4.0 mi NNE 10.4 mph - N/A   Overcast
7:53 PM 37.0 °F 30.4 °F 35.1 °F 93% 30.25 in 6.0 mi NNE 9.2 mph - N/A   Overcast
8:53 PM 37.0 °F 31.0 °F 35.1 °F 93% 30.26 in 6.0 mi NNE 8.1 mph - N/A   Overcast
9:53 PM 37.0 °F 29.8 °F 35.1 °F 93% 30.26 in 9.0 mi NE 10.4 mph - 0.00 in   Overcast
10:53 PM 37.0 °F 31.6 °F 35.1 °F 93% 30.26 in 3.0 mi NE 6.9 mph - N/A   Overcast
11:53 PM 37.0 °F 31.6 °F 36.0 °F 96% 30.26 in 3.0 mi NE 6.9 mph - N/A   Overcast